Year,Month,Day,Hour,Minute,Value (Times are PST for temperature in C)
2018,06,15,00,00,12.00
2018,06,15,00,01,12.00
2018,06,15,00,02,11.90
2018,06,15,00,03,11.90
2018,06,15,00,04,11.90
2018,06,15,00,05,11.90
2018,06,15,00,06,11.90
2018,06,15,00,07,11.90
2018,06,15,00,08,11.80
2018,06,15,00,09,11.80
2018,06,15,00,10,11.80
2018,06,15,00,11,11.80
2018,06,15,00,12,11.80
2018,06,15,00,13,11.70
2018,06,15,00,14,11.70
2018,06,15,00,15,11.70
2018,06,15,00,16,11.70
2018,06,15,00,17,11.70
2018,06,15,00,18,11.70
2018,06,15,00,19,11.60
2018,06,15,00,20,11.60
2018,06,15,00,21,11.60
2018,06,15,00,22,11.60
2018,06,15,00,23,11.60
2018,06,15,00,24,11.60
2018,06,15,00,25,11.50
2018,06,15,00,26,11.50
2018,06,15,00,27,11.50
2018,06,15,00,28,11.50
2018,06,15,00,29,11.50
2018,06,15,00,30,11.50
2018,06,15,00,31,11.50
2018,06,15,00,32,11.50
2018,06,15,00,33,11.50
2018,06,15,00,34,11.50
2018,06,15,00,35,11.40
2018,06,15,00,36,11.40
2018,06,15,00,37,11.40
2018,06,15,00,38,11.40
2018,06,15,00,39,11.40
2018,06,15,00,40,11.40
2018,06,15,00,41,11.40
2018,06,15,00,42,11.40
2018,06,15,00,43,11.40
2018,06,15,00,44,11.40
2018,06,15,00,45,11.40
2018,06,15,00,46,11.40
2018,06,15,00,47,11.40
2018,06,15,00,48,11.40
2018,06,15,00,49,11.40
2018,06,15,00,50,11.40
2018,06,15,00,51,11.40
2018,06,15,00,52,11.40
2018,06,15,00,53,11.40
2018,06,15,00,54,11.30
2018,06,15,00,55,11.30
2018,06,15,00,56,11.30
2018,06,15,00,57,11.30
2018,06,15,00,58,11.30
2018,06,15,00,59,11.30
2018,06,15,01,00,11.30
2018,06,15,01,01,11.30
2018,06,15,01,02,11.30
2018,06,15,01,03,11.30
2018,06,15,01,04,11.30
2018,06,15,01,05,11.20
2018,06,15,01,06,11.20
2018,06,15,01,07,11.20
2018,06,15,01,08,11.20
2018,06,15,01,09,11.20
2018,06,15,01,10,11.20
2018,06,15,01,11,11.20
2018,06,15,01,12,11.10
2018,06,15,01,13,11.10
2018,06,15,01,14,11.10
2018,06,15,01,15,11.10
2018,06,15,01,16,11.10
2018,06,15,01,17,11.10
2018,06,15,01,18,11.10
2018,06,15,01,19,11.10
2018,06,15,01,20,11.10
2018,06,15,01,21,11.00
2018,06,15,01,22,11.00
2018,06,15,01,23,11.00
2018,06,15,01,24,11.00
2018,06,15,01,25,11.00
2018,06,15,01,26,11.00
2018,06,15,01,27,11.00
2018,06,15,01,28,11.00
2018,06,15,01,29,11.00
2018,06,15,01,30,11.00
2018,06,15,01,31,11.00
2018,06,15,01,32,11.00
2018,06,15,01,33,11.00
2018,06,15,01,34,11.00
2018,06,15,01,35,11.00
2018,06,15,01,36,11.00
2018,06,15,01,37,11.00
2018,06,15,01,38,11.00
2018,06,15,01,39,11.00
2018,06,15,01,40,10.90
2018,06,15,01,41,10.90
2018,06,15,01,42,10.90
2018,06,15,01,43,10.90
2018,06,15,01,44,10.90
2018,06,15,01,45,10.90
2018,06,15,01,46,10.90
2018,06,15,01,47,10.80
2018,06,15,01,48,10.80
2018,06,15,01,49,10.80
2018,06,15,01,50,10.80
2018,06,15,01,51,10.80
2018,06,15,01,52,10.80
2018,06,15,01,53,10.80
2018,06,15,01,54,10.80
2018,06,15,01,55,10.80
2018,06,15,01,56,10.70
2018,06,15,01,57,10.70
2018,06,15,01,58,10.70
2018,06,15,01,59,10.70
2018,06,15,02,00,10.70
2018,06,15,02,01,10.70
2018,06,15,02,02,10.60
2018,06,15,02,03,10.60
2018,06,15,02,04,10.60
2018,06,15,02,05,10.60
2018,06,15,02,06,10.60
2018,06,15,02,07,10.60
2018,06,15,02,08,10.60
2018,06,15,02,09,10.50
2018,06,15,02,10,10.50
2018,06,15,02,11,10.50
2018,06,15,02,12,10.50
2018,06,15,02,13,10.40
2018,06,15,02,14,10.40
2018,06,15,02,15,10.40
2018,06,15,02,16,10.40
2018,06,15,02,17,10.40
2018,06,15,02,18,10.30
2018,06,15,02,19,10.30
2018,06,15,02,20,10.30
2018,06,15,02,21,10.30
2018,06,15,02,22,10.20
2018,06,15,02,23,10.20
2018,06,15,02,24,10.20
2018,06,15,02,25,10.10
2018,06,15,02,26,10.10
2018,06,15,02,27,10.10
2018,06,15,02,28,10.10
2018,06,15,02,29,10.10
2018,06,15,02,30,10.10
2018,06,15,02,31,10.00
2018,06,15,02,32,10.00
2018,06,15,02,33,10.00
2018,06,15,02,34,10.00
2018,06,15,02,35,9.90
2018,06,15,02,36,9.90
2018,06,15,02,37,9.90
2018,06,15,02,38,9.90
2018,06,15,02,39,9.90
2018,06,15,02,40,9.90
2018,06,15,02,41,9.90
2018,06,15,02,42,9.90
2018,06,15,02,43,9.90
2018,06,15,02,44,9.90
2018,06,15,02,45,9.80
2018,06,15,02,46,9.80
2018,06,15,02,47,9.80
2018,06,15,02,48,9.80
2018,06,15,02,49,9.80
2018,06,15,02,50,9.80
2018,06,15,02,51,9.80
2018,06,15,02,52,9.80
2018,06,15,02,53,9.80
2018,06,15,02,54,9.80
2018,06,15,02,55,9.70
2018,06,15,02,56,9.70
2018,06,15,02,57,9.70
2018,06,15,02,58,9.70
2018,06,15,02,59,9.70
2018,06,15,03,00,9.70
2018,06,15,03,01,9.70
2018,06,15,03,02,9.70
2018,06,15,03,03,9.60
2018,06,15,03,04,9.60
2018,06,15,03,05,9.60
2018,06,15,03,06,9.60
2018,06,15,03,07,9.60
2018,06,15,03,08,9.60
2018,06,15,03,09,9.60
2018,06,15,03,10,9.60
2018,06,15,03,11,9.60
2018,06,15,03,12,9.60
2018,06,15,03,13,9.50
2018,06,15,03,14,9.50
2018,06,15,03,15,9.50
2018,06,15,03,16,9.50
2018,06,15,03,17,9.40
2018,06,15,03,18,9.40
2018,06,15,03,19,9.40
2018,06,15,03,20,9.40
2018,06,15,03,21,9.40
2018,06,15,03,22,9.40
2018,06,15,03,23,9.40
2018,06,15,03,24,9.30
2018,06,15,03,25,9.30
2018,06,15,03,26,9.30
2018,06,15,03,27,9.30
2018,06,15,03,28,9.30
2018,06,15,03,29,9.30
2018,06,15,03,30,9.30
2018,06,15,03,31,9.30
2018,06,15,03,32,9.30
2018,06,15,03,33,9.30
2018,06,15,03,34,9.30
2018,06,15,03,35,9.30
2018,06,15,03,36,9.30
2018,06,15,03,37,9.30
2018,06,15,03,38,9.30
2018,06,15,03,39,9.30
2018,06,15,03,40,9.30
2018,06,15,03,41,9.20
2018,06,15,03,42,9.20
2018,06,15,03,43,9.20
2018,06,15,03,44,9.20
2018,06,15,03,45,9.20
2018,06,15,03,46,9.20
2018,06,15,03,47,9.10
2018,06,15,03,48,9.10
2018,06,15,03,49,9.10
2018,06,15,03,50,9.10
2018,06,15,03,51,9.10
2018,06,15,03,52,9.10
2018,06,15,03,53,9.10
2018,06,15,03,54,9.10
2018,06,15,03,55,9.10
2018,06,15,03,56,9.10
2018,06,15,03,57,9.10
2018,06,15,03,58,9.10
2018,06,15,03,59,9.10
2018,06,15,04,00,9.10
2018,06,15,04,01,9.10
2018,06,15,04,02,9.00
2018,06,15,04,03,9.00
2018,06,15,04,04,9.00
2018,06,15,04,05,9.00
2018,06,15,04,06,9.00
2018,06,15,04,07,9.00
2018,06,15,04,08,8.90
2018,06,15,04,09,8.90
2018,06,15,04,10,8.90
2018,06,15,04,11,8.90
2018,06,15,04,12,8.90
2018,06,15,04,13,8.90
2018,06,15,04,14,8.90
2018,06,15,04,15,8.90
2018,06,15,04,16,8.90
2018,06,15,04,17,8.90
2018,06,15,04,18,8.90
2018,06,15,04,19,8.90
2018,06,15,04,20,8.90
2018,06,15,04,21,8.80
2018,06,15,04,22,8.80
2018,06,15,04,23,8.80
2018,06,15,04,24,8.80
2018,06,15,04,25,8.90
2018,06,15,04,26,8.80
2018,06,15,04,27,8.80
2018,06,15,04,28,8.80
2018,06,15,04,29,8.80
2018,06,15,04,30,8.80
2018,06,15,04,31,8.80
2018,06,15,04,32,8.80
2018,06,15,04,33,8.80
2018,06,15,04,34,8.80
2018,06,15,04,35,8.70
2018,06,15,04,36,8.70
2018,06,15,04,37,8.70
2018,06,15,04,38,8.70
2018,06,15,04,39,8.70
2018,06,15,04,40,8.70
2018,06,15,04,41,8.70
2018,06,15,04,42,8.80
2018,06,15,04,43,8.80
2018,06,15,04,44,8.80
2018,06,15,04,45,8.80
2018,06,15,04,46,8.80
2018,06,15,04,47,8.80
2018,06,15,04,48,8.80
2018,06,15,04,49,8.80
2018,06,15,04,50,8.80
2018,06,15,04,51,8.90
2018,06,15,04,52,8.90
2018,06,15,04,53,8.90
2018,06,15,04,54,8.90
2018,06,15,04,55,8.90
2018,06,15,04,56,8.90
2018,06,15,04,57,8.90
2018,06,15,04,58,8.90
2018,06,15,04,59,8.90
2018,06,15,05,00,8.90
2018,06,15,05,01,8.90
2018,06,15,05,02,8.90
2018,06,15,05,03,8.90
2018,06,15,05,04,8.90
2018,06,15,05,05,8.90
2018,06,15,05,06,8.90
2018,06,15,05,07,8.90
2018,06,15,05,08,8.90
2018,06,15,05,09,9.00
2018,06,15,05,10,9.00
2018,06,15,05,11,9.00
2018,06,15,05,12,8.90
2018,06,15,05,13,8.90
2018,06,15,05,14,8.90
2018,06,15,05,15,8.90
2018,06,15,05,16,8.90
2018,06,15,05,17,8.90
2018,06,15,05,18,8.90
2018,06,15,05,19,8.90
2018,06,15,05,20,8.90
2018,06,15,05,21,9.00
2018,06,15,05,22,9.00
2018,06,15,05,23,9.00
2018,06,15,05,24,9.00
2018,06,15,05,25,9.00
2018,06,15,05,26,9.00
2018,06,15,05,27,9.10
2018,06,15,05,28,9.10
2018,06,15,05,29,9.10
2018,06,15,05,30,9.10
2018,06,15,05,31,9.10
2018,06,15,05,32,9.10
2018,06,15,05,33,9.10
2018,06,15,05,34,9.10
2018,06,15,05,35,9.10
2018,06,15,05,36,9.20
2018,06,15,05,37,9.20
2018,06,15,05,38,9.20
2018,06,15,05,39,9.20
2018,06,15,05,40,9.20
2018,06,15,05,41,9.30
2018,06,15,05,42,9.30
2018,06,15,05,43,9.30
2018,06,15,05,44,9.30
2018,06,15,05,45,9.30
2018,06,15,05,46,9.40
2018,06,15,05,47,9.40
2018,06,15,05,48,9.40
2018,06,15,05,49,9.40
2018,06,15,05,50,9.50
2018,06,15,05,51,9.50
2018,06,15,05,52,9.60
2018,06,15,05,53,9.70
2018,06,15,05,54,9.70
2018,06,15,05,55,9.80
2018,06,15,05,56,9.80
2018,06,15,05,57,9.90
2018,06,15,05,58,9.90
2018,06,15,05,59,9.90
2018,06,15,06,00,9.90
2018,06,15,06,01,10.00
2018,06,15,06,02,10.00
2018,06,15,06,03,10.00
2018,06,15,06,04,10.10
2018,06,15,06,05,10.10
2018,06,15,06,06,10.10
2018,06,15,06,07,10.10
2018,06,15,06,08,10.10
2018,06,15,06,09,10.20
2018,06,15,06,10,10.20
2018,06,15,06,11,10.20
2018,06,15,06,12,10.30
2018,06,15,06,13,10.30
2018,06,15,06,14,10.40
2018,06,15,06,15,10.40
2018,06,15,06,16,10.40
2018,06,15,06,17,10.40
2018,06,15,06,18,10.50
2018,06,15,06,19,10.50
2018,06,15,06,20,10.50
2018,06,15,06,21,10.50
2018,06,15,06,22,10.50
2018,06,15,06,23,10.50
2018,06,15,06,24,10.50
2018,06,15,06,25,10.60
2018,06,15,06,26,10.60
2018,06,15,06,27,10.60
2018,06,15,06,28,10.60
2018,06,15,06,29,10.60
2018,06,15,06,30,10.60
2018,06,15,06,31,10.60
2018,06,15,06,32,10.60
2018,06,15,06,33,10.70
2018,06,15,06,34,10.70
2018,06,15,06,35,10.70
2018,06,15,06,36,10.70
2018,06,15,06,37,10.80
2018,06,15,06,38,10.80
2018,06,15,06,39,10.80
2018,06,15,06,40,10.90
2018,06,15,06,41,10.90
2018,06,15,06,42,10.90
2018,06,15,06,43,10.90
2018,06,15,06,44,11.00
2018,06,15,06,45,11.00
2018,06,15,06,46,11.00
2018,06,15,06,47,11.10
2018,06,15,06,48,11.10
2018,06,15,06,49,11.10
2018,06,15,06,50,11.10
2018,06,15,06,51,11.20
2018,06,15,06,52,11.20
2018,06,15,06,53,11.20
2018,06,15,06,54,11.20
2018,06,15,06,55,11.20
2018,06,15,06,56,11.20
2018,06,15,06,57,11.20
2018,06,15,06,58,11.20
2018,06,15,06,59,11.30
2018,06,15,07,00,11.30
2018,06,15,07,01,11.30
2018,06,15,07,02,11.30
2018,06,15,07,03,11.30
2018,06,15,07,04,11.30
2018,06,15,07,05,11.40
2018,06,15,07,06,11.40
2018,06,15,07,07,11.40
2018,06,15,07,08,11.40
2018,06,15,07,09,11.50
2018,06,15,07,10,11.50
2018,06,15,07,11,11.60
2018,06,15,07,12,11.60
2018,06,15,07,13,11.60
2018,06,15,07,14,11.60
2018,06,15,07,15,11.70
2018,06,15,07,16,11.70
2018,06,15,07,17,11.70
2018,06,15,07,18,11.70
2018,06,15,07,19,11.80
2018,06,15,07,20,11.80
2018,06,15,07,21,11.80
2018,06,15,07,22,11.80
2018,06,15,07,23,11.80
2018,06,15,07,24,11.80
2018,06,15,07,25,11.90
2018,06,15,07,26,11.90
2018,06,15,07,27,11.90
2018,06,15,07,28,11.90
2018,06,15,07,29,11.90
2018,06,15,07,30,12.00
2018,06,15,07,31,12.00
2018,06,15,07,32,12.10
2018,06,15,07,33,12.10
2018,06,15,07,34,12.10
2018,06,15,07,35,12.10
2018,06,15,07,36,12.10
2018,06,15,07,37,12.20
2018,06,15,07,38,12.20
2018,06,15,07,39,12.20
2018,06,15,07,40,12.20
2018,06,15,07,41,12.30
2018,06,15,07,42,12.30
2018,06,15,07,43,12.30
2018,06,15,07,44,12.30
2018,06,15,07,45,12.30
2018,06,15,07,46,12.40
2018,06,15,07,47,12.40
2018,06,15,07,48,12.40
2018,06,15,07,49,12.40
2018,06,15,07,50,12.50
2018,06,15,07,51,12.50
2018,06,15,07,52,12.50
2018,06,15,07,53,12.60
2018,06,15,07,54,12.60
2018,06,15,07,55,12.60
2018,06,15,07,56,12.70
2018,06,15,07,57,12.70
2018,06,15,07,58,12.70
2018,06,15,07,59,12.70
2018,06,15,08,00,12.80
2018,06,15,08,01,12.80
2018,06,15,08,02,12.80
2018,06,15,08,03,12.90
2018,06,15,08,04,12.90
2018,06,15,08,05,12.90
2018,06,15,08,06,12.90
2018,06,15,08,07,13.00
2018,06,15,08,08,13.00
2018,06,15,08,09,13.10
2018,06,15,08,10,13.20
2018,06,15,08,11,13.20
2018,06,15,08,12,13.30
2018,06,15,08,13,13.30
2018,06,15,08,14,13.40
2018,06,15,08,15,13.40
2018,06,15,08,16,13.40
2018,06,15,08,17,13.50
2018,06,15,08,18,13.50
2018,06,15,08,19,13.60
2018,06,15,08,20,13.60
2018,06,15,08,21,13.70
2018,06,15,08,22,13.80
2018,06,15,08,23,13.90
2018,06,15,08,24,14.00
2018,06,15,08,25,14.20
2018,06,15,08,26,14.30
2018,06,15,08,27,14.40
2018,06,15,08,28,14.50
2018,06,15,08,29,14.70
2018,06,15,08,30,14.80
2018,06,15,08,31,14.90
2018,06,15,08,32,15.10
2018,06,15,08,33,15.10
2018,06,15,08,34,15.20
2018,06,15,08,35,15.30
2018,06,15,08,36,15.40
2018,06,15,08,37,15.50
2018,06,15,08,38,15.60
2018,06,15,08,39,15.70
2018,06,15,08,40,15.80
2018,06,15,08,41,15.90
2018,06,15,08,42,16.00
2018,06,15,08,43,16.10
2018,06,15,08,44,16.20
2018,06,15,08,45,16.30
2018,06,15,08,46,16.30
2018,06,15,08,47,16.30
2018,06,15,08,48,16.30
2018,06,15,08,49,16.30
2018,06,15,08,50,16.20
2018,06,15,08,51,16.20
2018,06,15,08,52,16.20
2018,06,15,08,53,16.20
2018,06,15,08,54,16.20
2018,06,15,08,55,16.10
2018,06,15,08,56,16.20
2018,06,15,08,57,16.10
2018,06,15,08,58,16.10
2018,06,15,08,59,16.10
2018,06,15,09,00,16.10
2018,06,15,09,01,16.10
2018,06,15,09,02,16.20
2018,06,15,09,03,16.30
2018,06,15,09,04,16.40
2018,06,15,09,05,16.40
2018,06,15,09,06,16.50
2018,06,15,09,07,16.50
2018,06,15,09,08,16.60
2018,06,15,09,09,16.50
2018,06,15,09,10,16.50
2018,06,15,09,11,16.40
2018,06,15,09,12,16.40
2018,06,15,09,13,16.30
2018,06,15,09,14,16.30
2018,06,15,09,15,16.30
2018,06,15,09,16,16.30
2018,06,15,09,17,16.30
2018,06,15,09,18,16.30
2018,06,15,09,19,16.30
2018,06,15,09,20,16.30
2018,06,15,09,21,16.30
2018,06,15,09,22,16.30
2018,06,15,09,23,16.20
2018,06,15,09,24,16.20
2018,06,15,09,25,16.20
2018,06,15,09,26,16.20
2018,06,15,09,27,16.20
2018,06,15,09,28,16.20
2018,06,15,09,29,16.20
2018,06,15,09,30,16.20
2018,06,15,09,31,16.20
2018,06,15,09,32,16.30
2018,06,15,09,33,16.40
2018,06,15,09,34,16.40
2018,06,15,09,35,16.40
2018,06,15,09,36,16.40
2018,06,15,09,37,16.40
2018,06,15,09,38,16.30
2018,06,15,09,39,16.30
2018,06,15,09,40,16.30
2018,06,15,09,41,16.30
2018,06,15,09,42,16.30
2018,06,15,09,43,16.30
2018,06,15,09,44,16.40
2018,06,15,09,45,16.50
2018,06,15,09,46,16.50
2018,06,15,09,47,16.50
2018,06,15,09,48,16.50
2018,06,15,09,49,16.40
2018,06,15,09,50,16.40
2018,06,15,09,51,16.40
2018,06,15,09,52,16.40
2018,06,15,09,53,16.40
2018,06,15,09,54,16.40
2018,06,15,09,55,16.40
2018,06,15,09,56,16.50
2018,06,15,09,57,16.60
2018,06,15,09,58,16.60
2018,06,15,09,59,16.60
2018,06,15,10,00,16.60
2018,06,15,10,01,16.60
2018,06,15,10,02,16.60
2018,06,15,10,03,16.70
2018,06,15,10,04,16.80
2018,06,15,10,05,16.80
2018,06,15,10,06,16.90
2018,06,15,10,07,16.90
2018,06,15,10,08,17.00
2018,06,15,10,09,17.00
2018,06,15,10,10,16.90
2018,06,15,10,11,16.90
2018,06,15,10,12,16.90
2018,06,15,10,13,16.80
2018,06,15,10,14,16.80
2018,06,15,10,15,16.80
2018,06,15,10,16,16.80
2018,06,15,10,17,16.80
2018,06,15,10,18,16.80
2018,06,15,10,19,16.80
2018,06,15,10,20,16.70
2018,06,15,10,21,16.70
2018,06,15,10,22,16.70
2018,06,15,10,23,16.70
2018,06,15,10,24,16.60
2018,06,15,10,25,16.60
2018,06,15,10,26,16.60
2018,06,15,10,27,16.50
2018,06,15,10,28,16.40
2018,06,15,10,29,16.40
2018,06,15,10,30,16.40
2018,06,15,10,31,16.30
2018,06,15,10,32,16.30
2018,06,15,10,33,16.20
2018,06,15,10,34,16.20
2018,06,15,10,35,16.20
2018,06,15,10,36,16.10
2018,06,15,10,37,16.10
2018,06,15,10,38,16.00
2018,06,15,10,39,16.00
2018,06,15,10,40,15.90
2018,06,15,10,41,15.90
2018,06,15,10,42,15.90
2018,06,15,10,43,15.80
2018,06,15,10,44,15.80
2018,06,15,10,45,15.80
2018,06,15,10,46,15.80
2018,06,15,10,47,15.80
2018,06,15,10,48,15.90
2018,06,15,10,49,15.90
2018,06,15,10,50,16.00
2018,06,15,10,51,16.00
2018,06,15,10,52,16.00
2018,06,15,10,53,16.00
2018,06,15,10,54,16.00
2018,06,15,10,55,16.00
2018,06,15,10,56,16.00
2018,06,15,10,57,15.90
2018,06,15,10,58,15.90
2018,06,15,10,59,15.90
2018,06,15,11,00,15.90
2018,06,15,11,01,15.90
2018,06,15,11,02,16.00
2018,06,15,11,03,16.10
2018,06,15,11,04,16.20
2018,06,15,11,05,16.30
2018,06,15,11,06,16.30
2018,06,15,11,07,16.30
2018,06,15,11,08,16.30
2018,06,15,11,09,16.30
2018,06,15,11,10,16.30
2018,06,15,11,11,16.30
2018,06,15,11,12,16.30
2018,06,15,11,13,16.30
2018,06,15,11,14,16.40
2018,06,15,11,15,16.40
2018,06,15,11,16,16.50
2018,06,15,11,17,16.60
2018,06,15,11,18,16.60
2018,06,15,11,19,16.70
2018,06,15,11,20,16.70
2018,06,15,11,21,16.70
2018,06,15,11,22,16.70
2018,06,15,11,23,16.70
2018,06,15,11,24,16.60
2018,06,15,11,25,16.60
2018,06,15,11,26,16.60
2018,06,15,11,27,16.60
2018,06,15,11,28,16.60
2018,06,15,11,29,16.60
2018,06,15,11,30,16.60
2018,06,15,11,31,16.60
2018,06,15,11,32,16.60
2018,06,15,11,33,16.60
2018,06,15,11,34,16.70
2018,06,15,11,35,16.70
2018,06,15,11,36,16.70
2018,06,15,11,37,16.60
2018,06,15,11,38,16.60
2018,06,15,11,39,16.60
2018,06,15,11,40,16.60
2018,06,15,11,41,16.60
2018,06,15,11,42,16.60
2018,06,15,11,43,16.50
2018,06,15,11,44,16.40
2018,06,15,11,45,16.40
2018,06,15,11,46,16.40
2018,06,15,11,47,16.30
2018,06,15,11,48,16.30
2018,06,15,11,49,16.20
2018,06,15,11,50,16.20
2018,06,15,11,51,16.20
2018,06,15,11,52,16.20
2018,06,15,11,53,16.20
2018,06,15,11,54,16.20
2018,06,15,11,55,16.10
2018,06,15,11,56,16.10
2018,06,15,11,57,16.10
2018,06,15,11,58,16.10
2018,06,15,11,59,16.10
2018,06,15,12,00,16.10
2018,06,15,12,01,16.10
2018,06,15,12,02,16.20
2018,06,15,12,03,16.20
2018,06,15,12,04,16.20
2018,06,15,12,05,16.20
2018,06,15,12,06,16.20
2018,06,15,12,07,16.20
2018,06,15,12,08,16.10
2018,06,15,12,09,16.10
2018,06,15,12,10,16.20
2018,06,15,12,11,16.10
2018,06,15,12,12,16.10
2018,06,15,12,13,16.10
2018,06,15,12,14,16.10
2018,06,15,12,15,16.10
2018,06,15,12,16,16.10
2018,06,15,12,17,16.10
2018,06,15,12,18,16.10
2018,06,15,12,19,16.00
2018,06,15,12,20,16.00
2018,06,15,12,21,16.00
2018,06,15,12,22,15.90
2018,06,15,12,23,15.90
2018,06,15,12,24,15.90
2018,06,15,12,25,15.90
2018,06,15,12,26,15.90
2018,06,15,12,27,15.90
2018,06,15,12,28,15.90
2018,06,15,12,29,15.90
2018,06,15,12,30,15.90
2018,06,15,12,31,15.90
2018,06,15,12,32,15.90
2018,06,15,12,33,16.00
2018,06,15,12,34,16.00
2018,06,15,12,35,16.10
2018,06,15,12,36,16.10
2018,06,15,12,37,16.10
2018,06,15,12,38,16.20
2018,06,15,12,39,16.20
2018,06,15,12,40,16.20
2018,06,15,12,41,16.20
2018,06,15,12,42,16.20
2018,06,15,12,43,16.20
2018,06,15,12,44,16.20
2018,06,15,12,45,16.20
2018,06,15,12,46,16.20
2018,06,15,12,47,16.20
2018,06,15,12,48,16.20
2018,06,15,12,49,16.20
2018,06,15,12,50,16.30
2018,06,15,12,51,16.30
2018,06,15,12,52,16.30
2018,06,15,12,53,16.30
2018,06,15,12,54,16.30
2018,06,15,12,55,16.30
2018,06,15,12,56,16.30
2018,06,15,12,57,16.40
2018,06,15,12,58,16.40
2018,06,15,12,59,16.40
2018,06,15,13,00,16.40
2018,06,15,13,01,16.30
2018,06,15,13,02,16.30
2018,06,15,13,03,16.30
2018,06,15,13,04,16.30
2018,06,15,13,05,16.30
2018,06,15,13,06,16.30
2018,06,15,13,07,16.30
2018,06,15,13,08,16.30
2018,06,15,13,09,16.30
2018,06,15,13,10,16.40
2018,06,15,13,11,16.50
2018,06,15,13,12,16.60
2018,06,15,13,13,16.60
2018,06,15,13,14,16.70
2018,06,15,13,15,16.70
2018,06,15,13,16,16.70
2018,06,15,13,17,16.70
2018,06,15,13,18,16.80
2018,06,15,13,19,16.80
2018,06,15,13,20,16.90
2018,06,15,13,21,17.00
2018,06,15,13,22,17.10
2018,06,15,13,23,17.10
2018,06,15,13,24,17.20
2018,06,15,13,25,17.20
2018,06,15,13,26,17.20
2018,06,15,13,27,17.30
2018,06,15,13,28,17.30
2018,06,15,13,29,17.40
2018,06,15,13,30,17.50
2018,06,15,13,31,17.50
2018,06,15,13,32,17.60
2018,06,15,13,33,17.60
2018,06,15,13,34,17.70
2018,06,15,13,35,17.70
2018,06,15,13,36,17.60
2018,06,15,13,37,17.50
2018,06,15,13,38,17.50
2018,06,15,13,39,17.50
2018,06,15,13,40,17.60
2018,06,15,13,41,17.60
2018,06,15,13,42,17.60
2018,06,15,13,43,17.60
2018,06,15,13,44,17.60
2018,06,15,13,45,17.60
2018,06,15,13,46,17.50
2018,06,15,13,47,17.40
2018,06,15,13,48,17.40
2018,06,15,13,49,17.40
2018,06,15,13,50,17.40
2018,06,15,13,51,17.40
2018,06,15,13,52,17.40
2018,06,15,13,53,17.50
2018,06,15,13,54,17.60
2018,06,15,13,55,17.60
2018,06,15,13,56,17.70
2018,06,15,13,57,17.80
2018,06,15,13,58,17.80
2018,06,15,13,59,17.90
2018,06,15,14,00,17.90
2018,06,15,14,01,18.00
2018,06,15,14,02,18.00
2018,06,15,14,03,18.10
2018,06,15,14,04,18.10
2018,06,15,14,05,18.10
2018,06,15,14,06,18.10
2018,06,15,14,07,18.00
2018,06,15,14,08,17.90
2018,06,15,14,09,17.90
2018,06,15,14,10,17.90
2018,06,15,14,11,17.90
2018,06,15,14,12,17.90
2018,06,15,14,13,17.90
2018,06,15,14,14,17.90
2018,06,15,14,15,17.90
2018,06,15,14,16,17.90
2018,06,15,14,17,18.00
2018,06,15,14,18,18.00
2018,06,15,14,19,18.00
2018,06,15,14,20,18.00
2018,06,15,14,21,18.00
2018,06,15,14,22,18.00
2018,06,15,14,23,18.00
2018,06,15,14,24,18.00
2018,06,15,14,25,18.10
2018,06,15,14,26,18.10
2018,06,15,14,27,18.10
2018,06,15,14,28,18.20
2018,06,15,14,29,18.20
2018,06,15,14,30,18.30
2018,06,15,14,31,18.40
2018,06,15,14,32,18.40
2018,06,15,14,33,18.30
2018,06,15,14,34,18.30
2018,06,15,14,35,18.20
2018,06,15,14,36,18.20
2018,06,15,14,37,18.20
2018,06,15,14,38,18.20
2018,06,15,14,39,18.20
2018,06,15,14,40,18.20
2018,06,15,14,41,18.30
2018,06,15,14,42,18.40
2018,06,15,14,43,18.40
2018,06,15,14,44,18.50
2018,06,15,14,45,18.60
2018,06,15,14,46,18.60
2018,06,15,14,47,18.60
2018,06,15,14,48,18.50
2018,06,15,14,49,18.50
2018,06,15,14,50,18.40
2018,06,15,14,51,18.40
2018,06,15,14,52,18.30
2018,06,15,14,53,18.30
2018,06,15,14,54,18.30
2018,06,15,14,55,18.30
2018,06,15,14,56,18.30
2018,06,15,14,57,18.30
2018,06,15,14,58,18.20
2018,06,15,14,59,18.20
2018,06,15,15,00,18.20
2018,06,15,15,01,18.30
2018,06,15,15,02,18.40
2018,06,15,15,03,18.60
2018,06,15,15,04,18.70
2018,06,15,15,05,18.90
2018,06,15,15,06,19.00
2018,06,15,15,07,19.10
2018,06,15,15,08,19.10
2018,06,15,15,09,19.10
2018,06,15,15,10,19.00
2018,06,15,15,11,19.00
2018,06,15,15,12,19.00
2018,06,15,15,13,19.00
2018,06,15,15,14,19.00
2018,06,15,15,15,19.00
2018,06,15,15,16,19.00
2018,06,15,15,17,19.00
2018,06,15,15,18,19.10
2018,06,15,15,19,19.10
2018,06,15,15,20,19.10
2018,06,15,15,21,19.10
2018,06,15,15,22,19.10
2018,06,15,15,23,19.10
2018,06,15,15,24,19.10
2018,06,15,15,25,19.20
2018,06,15,15,26,19.30
2018,06,15,15,27,19.40
2018,06,15,15,28,19.40
2018,06,15,15,29,19.50
2018,06,15,15,30,19.60
2018,06,15,15,31,19.60
2018,06,15,15,32,19.60
2018,06,15,15,33,19.60
2018,06,15,15,34,19.50
2018,06,15,15,35,19.40
2018,06,15,15,36,19.40
2018,06,15,15,37,19.40
2018,06,15,15,38,19.50
2018,06,15,15,39,19.60
2018,06,15,15,40,19.60
2018,06,15,15,41,19.70
2018,06,15,15,42,19.90
2018,06,15,15,43,20.10
2018,06,15,15,44,20.20
2018,06,15,15,45,20.20
2018,06,15,15,46,20.30
2018,06,15,15,47,20.30
2018,06,15,15,48,20.20
2018,06,15,15,49,20.10
2018,06,15,15,50,20.10
2018,06,15,15,51,20.00
2018,06,15,15,52,19.90
2018,06,15,15,53,19.90
2018,06,15,15,54,19.90
2018,06,15,15,55,19.90
2018,06,15,15,56,19.80
2018,06,15,15,57,19.70
2018,06,15,15,58,19.70
2018,06,15,15,59,19.60
2018,06,15,16,00,19.50
2018,06,15,16,01,19.40
2018,06,15,16,02,19.40
2018,06,15,16,03,19.40
2018,06,15,16,04,19.30
2018,06,15,16,05,19.40
2018,06,15,16,06,19.40
2018,06,15,16,07,19.50
2018,06,15,16,08,19.50
2018,06,15,16,09,19.60
2018,06,15,16,10,19.70
2018,06,15,16,11,19.70
2018,06,15,16,12,19.70
2018,06,15,16,13,19.60
2018,06,15,16,14,19.60
2018,06,15,16,15,19.50
2018,06,15,16,16,19.50
2018,06,15,16,17,19.60
2018,06,15,16,18,19.70
2018,06,15,16,19,19.80
2018,06,15,16,20,19.80
2018,06,15,16,21,19.70
2018,06,15,16,22,19.60
2018,06,15,16,23,19.50
2018,06,15,16,24,19.40
2018,06,15,16,25,19.30
2018,06,15,16,26,19.30
2018,06,15,16,27,19.20
2018,06,15,16,28,19.20
2018,06,15,16,29,19.10
2018,06,15,16,30,19.10
2018,06,15,16,31,19.10
2018,06,15,16,32,19.10
2018,06,15,16,33,19.10
2018,06,15,16,34,19.10
2018,06,15,16,35,19.10
2018,06,15,16,36,19.10
2018,06,15,16,37,19.20
2018,06,15,16,38,19.20
2018,06,15,16,39,19.20
2018,06,15,16,40,19.20
2018,06,15,16,41,19.20
2018,06,15,16,42,19.30
2018,06,15,16,43,19.30
2018,06,15,16,44,19.30
2018,06,15,16,45,19.30
2018,06,15,16,46,19.30
2018,06,15,16,47,19.20
2018,06,15,16,48,19.20
2018,06,15,16,49,19.20
2018,06,15,16,50,19.20
2018,06,15,16,51,19.20
2018,06,15,16,52,19.20
2018,06,15,16,53,19.20
2018,06,15,16,54,19.20
2018,06,15,16,55,19.20
2018,06,15,16,56,19.20
2018,06,15,16,57,19.20
2018,06,15,16,58,19.20
2018,06,15,16,59,19.20
2018,06,15,17,00,19.20
2018,06,15,17,01,19.30
2018,06,15,17,02,19.30
2018,06,15,17,03,19.30
2018,06,15,17,04,19.30
2018,06,15,17,05,19.30
2018,06,15,17,06,19.30
2018,06,15,17,07,19.20
2018,06,15,17,08,19.20
2018,06,15,17,09,19.20
2018,06,15,17,10,19.20
2018,06,15,17,11,19.20
2018,06,15,17,12,19.20
2018,06,15,17,13,19.10
2018,06,15,17,14,19.10
2018,06,15,17,15,19.10
2018,06,15,17,16,19.00
2018,06,15,17,17,18.90
2018,06,15,17,18,18.90
2018,06,15,17,19,18.90
2018,06,15,17,20,18.90
2018,06,15,17,21,18.90
2018,06,15,17,22,18.90
2018,06,15,17,23,19.00
2018,06,15,17,24,19.00
2018,06,15,17,25,19.00
2018,06,15,17,26,19.10
2018,06,15,17,27,19.10
2018,06,15,17,28,19.10